• In Hungary
  • List of Countries
  • For 7 days
  • Water Temperature
  • Satellite Maps
  • Weather Map
  • News
  • Weather Widgets
  • user-avatar
    Login

    Hourly Weather Martyncevo

    Today, 21 May, Monday

    Time Temperature Precipitation Wind Pressure Humidity
    00:00 +7°C° 0 mm 1 mps 755 mmHg 69%
    01:00 +7°C° 0 mm 1 mps 756 mmHg 69%
    02:00 +6°C° 0 mm 1 mps 756 mmHg 70%
    03:00 +7°C° 0 mm 1 mps 756 mmHg 69%
    04:00 +8°C° 0 mm 1 mps 757 mmHg 69%
    05:00 +9°C° 0 mm 1 mps 757 mmHg 69%
    06:00 +11°C° 0 mm 1 mps 757 mmHg 63%
    07:00 +13°C° 0 mm 1 mps 758 mmHg 56%
    08:00 +15°C° 0 mm 2 mps 758 mmHg 50%
    09:00 +17°C° 0 mm 2 mps 758 mmHg 46%
    10:00 +18°C° 0 mm 2 mps 758 mmHg 43%
    11:00 +19°C° 0 mm 3 mps 758 mmHg 40%
    12:00 +19°C° 0 mm 3 mps 758 mmHg 40%
    13:00 +20°C° 0 mm 3 mps 758 mmHg 40%
    14:00 +20°C° 0 mm 3 mps 758 mmHg 39%
    15:00 +20°C° 0 mm 3 mps 758 mmHg 43%
    16:00 +20°C° 0 mm 2 mps 758 mmHg 46%
    17:00 +20°C° 0 mm 2 mps 758 mmHg 50%
    18:00 +17°C° 0 mm 2 mps 758 mmHg 57%
    19:00 +15°C° 0 mm 2 mps 758 mmHg 64%
    20:00 +13°C° 0 mm 2 mps 758 mmHg 71%
    21:00 +12°C° 0 mm 2 mps 758 mmHg 74%
    22:00 +12°C° 0 mm 2 mps 758 mmHg 76%
    23:00 +11°C° 0 mm 1 mps 759 mmHg 78%

    Tomorrow, 22 May, Tuesday

    Time Temperature Precipitation Wind Pressure Humidity
    00:00 +10°C° 0 mm 1 mps 759 mmHg 79%
    01:00 +10°C° 0 mm 1 mps 759 mmHg 80%
    02:00 +9°C° 0 mm 1 mps 759 mmHg 81%
    03:00 +9°C° 0 mm 2 mps 759 mmHg 79%
    04:00 +9°C° 0 mm 2 mps 759 mmHg 77%
    05:00 +10°C° 0 mm 2 mps 759 mmHg 75%
    06:00 +12°C° 0 mm 3 mps 759 mmHg 67%
    07:00 +14°C° 0 mm 3 mps 759 mmHg 59%
    08:00 +17°C° 0 mm 4 mps 759 mmHg 52%
    09:00 +18°C° 0 mm 4 mps 759 mmHg 49%
    10:00 +19°C° 0 mm 4 mps 758 mmHg 47%
    11:00 +20°C° 0 mm 4 mps 758 mmHg 44%
    12:00 +19°C° 0.2 mm 3 mps 758 mmHg 55%
    13:00 +17°C° 0.2 mm 3 mps 757 mmHg 65%
    14:00 +16°C° 0.2 mm 2 mps 757 mmHg 75%
    15:00 +16°C° 0.1 mm 2 mps 757 mmHg 78%
    16:00 +16°C° 0.1 mm 2 mps 756 mmHg 80%
    17:00 +15°C° 0.1 mm 2 mps 756 mmHg 83%
    18:00 +15°C° 0 mm 1 mps 756 mmHg 85%
    19:00 +15°C° 0 mm 1 mps 755 mmHg 87%
    20:00 +14°C° 0 mm 1 mps 755 mmHg 89%
    21:00 +14°C° 0 mm 1 mps 755 mmHg 90%
    22:00 +14°C° 0 mm 1 mps 755 mmHg 92%
    23:00 +13°C° 0 mm 1 mps 755 mmHg 93%

    Day after tomorrow, 23 May, Wednesday

    Time Temperature Precipitation Wind Pressure Humidity
    00:00 +13°C° 0 mm 1 mps 754 mmHg 94%
    01:00 +13°C° 0 mm 1 mps 754 mmHg 95%
    02:00 +13°C° 0 mm 1 mps 754 mmHg 96%
    03:00 +13°C° 0 mm 1 mps 754 mmHg 96%
    04:00 +13°C° 0 mm 1 mps 754 mmHg 96%
    05:00 +14°C° 0 mm 1 mps 754 mmHg 95%
    06:00 +15°C° 0 mm 1 mps 754 mmHg 90%
    07:00 +18°C° 0 mm 1 mps 754 mmHg 84%
    08:00 +19°C° 0 mm 1 mps 754 mmHg 79%
    09:00 +19°C° 0.1 mm 2 mps 754 mmHg 73%
    10:00 +20°C° 0.1 mm 2 mps 754 mmHg 66%
    11:00 +21°C° 0.1 mm 2 mps 754 mmHg 60%
    12:00 +22°C° 0 mm 3 mps 753 mmHg 58%
    13:00 +22°C° 0 mm 3 mps 753 mmHg 55%
    14:00 +24°C° 0 mm 3 mps 753 mmHg 53%
    15:00 +24°C° 0 mm 3 mps 752 mmHg 55%
    16:00 +24°C° 0 mm 2 mps 752 mmHg 57%
    17:00 +24°C° 0 mm 2 mps 752 mmHg 59%
    18:00 +21°C° 0.3 mm 2 mps 752 mmHg 68%
    19:00 +19°C° 0.3 mm 2 mps 752 mmHg 76%
    20:00 +16°C° 0.3 mm 1 mps 752 mmHg 85%
    21:00 +16°C° 0.3 mm 1 mps 752 mmHg 88%
    22:00 +15°C° 0.3 mm 1 mps 752 mmHg 91%
    23:00 +14°C° 0.3 mm 1 mps 752 mmHg 94%

    24 May, Thursday

    Time Temperature Precipitation Wind Pressure Humidity
    00:00 +14°C° 0 mm 1 mps 752 mmHg 95%
    01:00 +13°C° 0 mm 2 mps 752 mmHg 96%
    02:00 +13°C° 0 mm 2 mps 752 mmHg 97%
    03:00 +13°C° 0 mm 2 mps 752 mmHg 96%
    04:00 +13°C° 0 mm 2 mps 752 mmHg 95%
    05:00 +14°C° 0 mm 2 mps 752 mmHg 95%
    06:00 +15°C° 0 mm 2 mps 752 mmHg 89%
    07:00 +16°C° 0 mm 2 mps 752 mmHg 84%
    08:00 +18°C° 0 mm 3 mps 752 mmHg 78%
    09:00 +19°C° 0.1 mm 3 mps 753 mmHg 72%
    10:00 +20°C° 0.1 mm 3 mps 753 mmHg 66%
    11:00 +21°C° 0.1 mm 4 mps 753 mmHg 59%
    12:00 +21°C° 0.2 mm 4 mps 753 mmHg 60%
    13:00 +21°C° 0.2 mm 5 mps 753 mmHg 60%
    14:00 +21°C° 0.2 mm 5 mps 753 mmHg 61%
    15:00 +20°C° 0.1 mm 5 mps 754 mmHg 62%
    16:00 +19°C° 0.1 mm 5 mps 754 mmHg 63%
    17:00 +17°C° 0.1 mm 5 mps 754 mmHg 64%
    18:00 +16°C° 0 mm 5 mps 755 mmHg 66%
    19:00 +14°C° 0 mm 4 mps 755 mmHg 68%
    20:00 +13°C° 0 mm 3 mps 756 mmHg 70%
    21:00 +12°C° 0 mm 4 mps 756 mmHg 67%
    22:00 +11°C° 0 mm 4 mps 757 mmHg 63%
    23:00 +10°C° 0 mm 4 mps 757 mmHg 60%

    25 May, Friday

    Time Temperature Precipitation Wind Pressure Humidity
    00:00 +8°C° 0 mm 4 mps 758 mmHg 61%
    01:00 +8°C° 0 mm 3 mps 758 mmHg 62%
    02:00 +7°C° 0 mm 3 mps 759 mmHg 63%
    03:00 +8°C° 0 mm 3 mps 759 mmHg 63%
    04:00 +7°C° 0 mm 4 mps 760 mmHg 64%
    05:00 +7°C° 0 mm 4 mps 760 mmHg 64%
    06:00 +8°C° 0 mm 4 mps 760 mmHg 59%
    07:00 +10°C° 0 mm 4 mps 761 mmHg 54%
    08:00 +12°C° 0 mm 4 mps 761 mmHg 49%
    09:00 +13°C° 0 mm 4 mps 761 mmHg 46%
    10:00 +13°C° 0 mm 4 mps 761 mmHg 44%
    11:00 +14°C° 0 mm 4 mps 761 mmHg 42%
    12:00 +15°C° 0 mm 4 mps 761 mmHg 42%
    13:00 +15°C° 0 mm 4 mps 761 mmHg 41%
    14:00 +17°C° 0 mm 4 mps 761 mmHg 41%
    15:00 +17°C° 0 mm 4 mps 761 mmHg 42%
    16:00 +16°C° 0 mm 3 mps 761 mmHg 44%
    17:00 +16°C° 0 mm 3 mps 761 mmHg 46%
    18:00 +13°C° 0 mm 3 mps 761 mmHg 53%
    19:00 +12°C° 0 mm 2 mps 761 mmHg 60%
    20:00 +9°C° 0 mm 2 mps 762 mmHg 67%
    21:00 +9°C° 0 mm 2 mps 762 mmHg 69%
    22:00 +8°C° 0 mm 2 mps 762 mmHg 70%
    23:00 +7°C° 0 mm 2 mps 762 mmHg 71%

    26 May, Saturday

    Time Temperature Precipitation Wind Pressure Humidity
    00:00 +7°C° 0 mm 1 mps 762 mmHg 72%
    01:00 +7°C° 0 mm 1 mps 763 mmHg 73%
    02:00 +7°C° 0 mm 1 mps 763 mmHg 74%
    03:00 +7°C° 0 mm 1 mps 763 mmHg 73%
    04:00 +8°C° 0 mm 1 mps 763 mmHg 71%
    05:00 +9°C° 0 mm 1 mps 763 mmHg 69%
    06:00 +11°C° 0 mm 1 mps 763 mmHg 62%
    07:00 +13°C° 0 mm 1 mps 763 mmHg 55%
    08:00 +15°C° 0 mm 2 mps 763 mmHg 47%
    09:00 +16°C° 0 mm 2 mps 763 mmHg 44%
    10:00 +17°C° 0 mm 2 mps 763 mmHg 40%
    11:00 +19°C° 0 mm 2 mps 762 mmHg 36%
    12:00 +19°C° 0 mm 2 mps 762 mmHg 36%
    13:00 +20°C° 0 mm 2 mps 762 mmHg 36%
    14:00 +20°C° 0 mm 2 mps 761 mmHg 35%
    15:00 +20°C° 0 mm 2 mps 761 mmHg 38%
    16:00 +20°C° 0 mm 2 mps 760 mmHg 41%
    17:00 +20°C° 0 mm 2 mps 760 mmHg 44%
    18:00 +18°C° 0 mm 2 mps 760 mmHg 51%
    19:00 +16°C° 0 mm 2 mps 759 mmHg 59%
    20:00 +13°C° 0 mm 2 mps 759 mmHg 66%
    21:00 +13°C° 0 mm 2 mps 759 mmHg 69%
    22:00 +12°C° 0 mm 2 mps 759 mmHg 73%
    23:00 +10°C° 0 mm 2 mps 759 mmHg 76%
    Show more